Home   Weather   Maribor   Past weeks

Flag for Slovenia Past Weather in Maribor, Slovenia — Yesterday and Last 2 Weeks

57 °F

Rain showers. Overcast.

Feels Like: 57 °F
Forecast: 44 / 55 °F
Wind: 1 mph from North

Location: Maribor / Slivnica

Current Time: Oct 26, 2016 at 6:09:51 AM

Latest Report: Oct 26, 2016 at 5:00 AM

Visibility: 8 mi

Pressure: 30.20 "Hg

Humidity: 95%

Dew Point: 55 °F

Location of MariborLocation

Past Weather in Maribor — Graph


Maribor Temperature Yesterday

Maximum temperature yesterday: 73 °F (at 1:00 PM)
Minimum temperature yesterday: 59 °F (at 11:00 PM)
Average temperature yesterday: 65 °F

High & Low Weather Summary for the Past Weeks

High73 °F (Oct 25, 1:00 PM)100% (Oct 23, 6:00 AM)30.32 "Hg (Oct 23, 6:00 AM)
Low32 °F (Oct 13, 7:00 AM)46% (Oct 12, 4:00 PM)29.91 "Hg (Oct 12, 5:00 AM)
Average50 °F86%30.09 "Hg
* Reported Oct 11 4:00 AM — Oct 26 4:00 AM, Maribor, Weather by CustomWeather, © 2016

Note: Actual official high and low records may vary slightly from our data, if they occured in-between our weather recording intervals... More about our weather records


Maribor Weather History for the Previous 24 Hours

Scroll right to see more
Time TempWeatherWind HumidityBarometerVisibility
4:00 AM
Wed, Oct 26
57 °FLight rain. Overcast.2 mph94%30.19 "Hg19 mi
3:00 AM57 °FLight rain. Overcast.2 mph94%30.19 "Hg17 mi
2:00 AM57 °FRain. Overcast.3 mph96%30.19 "Hg4 mi
1:00 AM58 °FRain. Overcast.3 mph95%30.18 "Hg4 mi
12:00 AM58 °FRain. Overcast.3 mph95%30.16 "Hg5 mi
11:00 PM
Tue, Oct 25
59 °FRain. Overcast.6 mph94%30.15 "Hg4 mi
10:00 PM61 °FLight rain. Low clouds.1 mph95%30.14 "Hg2 mi
9:00 PM61 °FLight rain. Overcast.1 mph95%30.14 "Hg4 mi
8:00 PM62 °FLight rain. Overcast.1 mph94%30.14 "Hg6 mi
7:00 PM64 °FLight rain. Overcast.3 mph80%30.11 "Hg12 mi
6:00 PM64 °FRain showers. Overcast.3 mph79%30.10 "Hg12 mi
5:00 PM67 °FMild.5 mph69%30.11 "Hg25 mi
4:00 PM69 °FMild.6 mph65%30.11 "Hg25 mi
3:00 PM71 °FMild.5 mph63%30.11 "Hg22 mi
2:00 PM71 °FOvercast.5 mph61%30.13 "Hg22 mi
1:00 PM73 °FOvercast.5 mph58%30.12 "Hg19 mi
12:00 PM71 °FOvercast.5 mph60%30.12 "Hg22 mi
11:00 AM69 °FMild.7 mph65%30.08 "Hg19 mi
10:00 AM66 °FOvercast.9 mph69%30.07 "Hg22 mi
9:00 AM65 °FOvercast.7 mph72%30.06 "Hg22 mi
8:00 AM65 °FMild.7 mph72%30.07 "Hg22 mi
7:00 AM64 °FOvercast.6 mph75%30.06 "Hg22 mi
6:00 AM63 °FOvercast.12 mph76%30.06 "Hg19 mi
Weather by CustomWeather, © 2016

See weather overviewHow to use our weather pages